GW1129 Weather Reports


time (UTC)temp
C
wind
direction
speed
KPH
gust
KPH
rain 1hr
cm
rain 24hr
cm
rain mn
cm
humidity
%
barometer
mb
20260504214555 21 184 6.4 19.3 0.00 0.00 0.00 38 1010.4
20260504213102 21 264 9.7 22.5 0.00 0.00 0.00 38 1010.4
20260504211556 21 130 9.7 24.1 0.00 0.00 0.00 38 1010.5
20260504210056 21 139 6.4 19.3 0.00 0.00 0.00 38 1010.6
20260504204557 21 184 11.3 27.4 0.00 0.00 0.00 37 1010.8
20260504203056 21 234 8.0 20.9 0.00 0.00 0.00 37 1010.8
20260504201557 21 125 6.4 19.3 0.00 0.00 0.00 37 1010.9
20260504194606 20 98 8.0 24.1 0.00 0.00 0.00 37 1011.4
20260504193102 21 97 9.7 19.3 0.00 0.00 0.00 36 1011.7
20260504191623 20 255 9.7 22.5 0.00 0.00 0.00 38 1011.8
20260504184606 20 143 8.0 22.5 0.00 0.00 0.00 35 1012.1
20260504183055 20 165 4.8 20.9 0.00 0.00 0.00 38 1012.2
20260504181604 20 92 6.4 22.5 0.00 0.00 0.00 38 1012.2
20260504174559 20 217 4.8 14.5 0.00 0.00 0.00 36 1012.8
20260504173104 20 94 4.8 19.3 0.00 0.00 0.00 38 1012.9
20260504171605 20 211 4.8 19.3 0.00 0.00 0.00 40 1013.0
20260504140106 15 188 3.2 12.9 0.00 0.00 0.00 50 1014.4
20260504081556 5 0 0.0 0.0 0.00 0.00 0.00 77 1015.2
20260504060108 7 0 0.0 0.0 0.00 0.00 0.00 59 1015.3
20260504050113 6 0 1.6 3.2 0.00 0.00 0.00 67 1015.5
20260504044556 6 0 0.0 0.0 0.00 0.00 0.00 74 1015.4
20260504043104 6 0 0.0 0.0 0.00 0.00 0.00 75 1015.4
20260504041600 6 0 0.0 0.0 0.00 0.00 0.00 75 1015.3
20260504040105 6 0 0.0 0.0 0.00 0.00 0.00 76 1015.4
20260504034606 6 0 0.0 1.6 0.00 0.00 0.00 76 1015.1
20260504033100 6 0 0.0 0.0 0.00 0.00 0.00 76 1015.1
20260504031608 6 0 0.0 1.6 0.00 0.00 0.00 75 1014.9
20260504030114 6 0 0.0 0.0 0.00 0.00 0.00 76 1014.8
20260504024556 6 0 0.0 0.0 0.00 0.00 0.00 74 1014.7
20260504023057 6 0 0.0 0.0 0.00 0.00 0.00 74 1014.6
20260504021609 6 0 0.0 0.0 0.00 0.00 0.00 73 1014.8
20260504020056 6 0 0.0 0.0 0.00 0.00 0.00 73 1014.8
20260504014558 7 0 0.0 0.0 0.00 0.00 0.00 69 1014.6
20260504013055 7 0 0.0 0.0 0.00 0.00 0.00 65 1014.7
20260504011556 7 0 0.0 0.0 0.00 0.00 0.00 64 1014.6
20260504010054 8 0 0.0 0.0 0.00 0.00 0.00 63 1014.5
20260504004557 8 0 0.0 0.0 0.00 0.00 0.00 55 1014.3
20260504003055 9 0 0.0 0.0 0.00 0.00 0.00 51 1014.1
20260504001556 10 0 0.0 0.0 0.00 0.00 0.00 45 1014.2
20260504000136 12 0 0.0 0.0 0.00 0.00 0.00 42 1014.2
20260503234554 13 0 0.0 3.2 0.00 0.00 0.00 37 1013.8
20260503233057 13 252 1.6 8.0 0.00 0.00 0.00 34 1013.8
20260503231558 15 222 1.6 14.5 0.00 0.00 0.00 34 1013.6
20260503230058 15 252 3.2 11.3 0.00 0.00 0.00 32 1013.7
20260503224556 15 244 6.4 11.3 0.00 0.00 0.00 31 1013.6
20260503223054 15 240 3.2 16.1 0.00 0.00 0.00 33 1013.4
20260503221554 15 218 9.7 19.3 0.00 0.00 0.00 30 1013.5
20260503220056 15 197 6.4 17.7 0.00 0.00 0.00 32 1013.4